TimeEDT,TemperatureF,Dew PointF,Humidity,Sea Level PressureIn,VisibilityMPH,Wind Direction,Wind SpeedMPH,Gust SpeedMPH,PrecipitationIn,Events,Conditions,WindDirDegrees,DateUTC
12:15 AM,55.4,51.8,88,29.85,10.0,WNW,4.6,-,N/A,,Mostly Cloudy,300,2013-06-14 04:15:00
12:35 AM,55.4,51.8,88,29.86,10.0,WNW,5.8,-,N/A,,Overcast,300,2013-06-14 04:35:00
12:55 AM,55.4,51.8,88,29.85,10.0,NW,3.5,-,N/A,,Mostly Cloudy,320,2013-06-14 04:55:00
1:15 AM,55.4,51.8,88,29.86,10.0,NW,4.6,-,N/A,,Mostly Cloudy,320,2013-06-14 05:15:00
1:35 AM,55.4,51.8,88,29.85,10.0,Calm,Calm,-,N/A,,Overcast,0,2013-06-14 05:35:00
1:55 AM,53.6,51.8,94,29.85,10.0,NW,3.5,-,N/A,,Mostly Cloudy,310,2013-06-14 05:55:00
2:15 AM,53.6,51.8,94,29.86,10.0,Calm,Calm,-,N/A,,Partly Cloudy,0,2013-06-14 06:15:00
2:35 AM,53.6,51.8,94,29.86,10.0,Calm,Calm,-,N/A,,Clear,0,2013-06-14 06:35:00
2:55 AM,51.8,50.0,94,29.86,10.0,West,3.5,-,N/A,,Partly Cloudy,280,2013-06-14 06:55:00
3:15 AM,53.6,51.8,94,29.86,10.0,Calm,Calm,-,N/A,,Mostly Cloudy,0,2013-06-14 07:15:00
3:35 AM,53.6,51.8,94,29.86,10.0,Calm,Calm,-,N/A,,Overcast,0,2013-06-14 07:35:00
3:55 AM,53.6,51.8,94,29.87,10.0,WNW,4.6,-,N/A,,Overcast,290,2013-06-14 07:55:00
4:15 AM,55.4,51.8,88,29.87,10.0,Calm,Calm,-,N/A,,Overcast,0,2013-06-14 08:15:00
4:35 AM,55.4,51.8,88,29.87,10.0,Calm,Calm,-,N/A,,Overcast,0,2013-06-14 08:35:00
4:55 AM,55.4,51.8,88,29.87,10.0,Calm,Calm,-,N/A,,Overcast,0,2013-06-14 08:55:00
5:15 AM,55.4,51.8,88,29.89,10.0,Calm,Calm,-,N/A,,Overcast,0,2013-06-14 09:15:00
5:35 AM,55.4,51.8,88,29.89,10.0,Calm,Calm,-,N/A,,Overcast,0,2013-06-14 09:35:00
5:55 AM,55.4,51.8,88,29.89,10.0,West,3.5,-,N/A,,Overcast,280,2013-06-14 09:55:00
6:15 AM,55.4,51.8,88,29.89,10.0,Calm,Calm,-,N/A,,Overcast,0,2013-06-14 10:15:00
6:35 AM,55.4,53.6,94,29.90,5.0,Calm,Calm,-,N/A,,Overcast,0,2013-06-14 10:35:00
6:55 AM,55.4,53.6,94,29.91,2.0,West,3.5,-,N/A,,Overcast,280,2013-06-14 10:55:00
7:15 AM,55.4,53.6,94,29.92,0.5,WNW,3.5,-,N/A,,Overcast,300,2013-06-14 11:15:00
7:35 AM,55.4,53.6,94,29.92,0.2,North,3.5,-,N/A,,Overcast,350,2013-06-14 11:35:00
7:55 AM,55.4,53.6,94,29.93,1.0,North,4.6,-,N/A,,Overcast,10,2013-06-14 11:55:00
8:15 AM,55.4,53.6,94,29.94,1.5,North,4.6,-,N/A,,Overcast,10,2013-06-14 12:15:00
8:35 AM,55.4,53.6,94,29.95,4.0,North,4.6,-,N/A,,Overcast,360,2013-06-14 12:35:00
8:55 AM,57.2,53.6,88,29.96,6.0,North,3.5,-,N/A,,Overcast,10,2013-06-14 12:55:00
9:15 AM,57.2,53.6,88,29.97,9.0,Calm,Calm,-,N/A,,Overcast,0,2013-06-14 13:15:00
9:35 AM,59.0,55.4,88,29.97,10.0,West,5.8,-,N/A,,Overcast,280,2013-06-14 13:35:00
9:55 AM,60.8,53.6,77,29.99,10.0,NW,4.6,-,N/A,,Overcast,320,2013-06-14 13:55:00
10:15 AM,60.8,53.6,77,29.99,10.0,NW,5.8,-,N/A,,Mostly Cloudy,320,2013-06-14 14:15:00
10:35 AM,62.6,55.4,77,29.99,10.0,West,4.6,-,N/A,,Scattered Clouds,280,2013-06-14 14:35:00
10:55 AM,64.4,55.4,73,29.99,10.0,North,5.8,-,N/A,,Scattered Clouds,350,2013-06-14 14:55:00
11:15 AM,66.2,55.4,68,30.00,10.0,West,6.9,-,N/A,,Scattered Clouds,280,2013-06-14 15:15:00
11:35 AM,66.2,55.4,68,30.01,10.0,WSW,5.8,-,N/A,,Scattered Clouds,250,2013-06-14 15:35:00
11:55 AM,66.2,55.4,68,30.00,10.0,WNW,5.8,-,N/A,,Mostly Cloudy,290,2013-06-14 15:55:00
12:15 PM,66.2,55.4,68,30.01,10.0,WNW,6.9,-,N/A,,Mostly Cloudy,300,2013-06-14 16:15:00
12:35 PM,69.8,55.4,60,30.01,10.0,WNW,4.6,-,N/A,,Mostly Cloudy,290,2013-06-14 16:35:00
12:55 PM,66.2,53.6,64,30.01,10.0,Calm,Calm,-,N/A,,Mostly Cloudy,0,2013-06-14 16:55:00
1:15 PM,69.8,55.4,60,30.02,10.0,West,10.4,-,N/A,,Scattered Clouds,280,2013-06-14 17:15:00
1:35 PM,69.8,53.6,56,30.02,10.0,WNW,6.9,-,N/A,,Mostly Cloudy,290,2013-06-14 17:35:00
1:55 PM,69.8,55.4,60,30.01,10.0,NW,8.1,-,N/A,,Mostly Cloudy,320,2013-06-14 17:55:00
2:15 PM,69.8,55.4,60,30.01,10.0,WNW,9.2,-,N/A,,Scattered Clouds,300,2013-06-14 18:15:00
2:35 PM,69.8,55.4,60,30.02,10.0,NNW,10.4,16.1,N/A,,Scattered Clouds,330,2013-06-14 18:35:00
2:55 PM,69.8,53.6,56,30.02,10.0,North,8.1,-,N/A,,Mostly Cloudy,360,2013-06-14 18:55:00
3:15 PM,69.8,53.6,56,30.02,10.0,WNW,10.4,16.1,N/A,,Mostly Cloudy,300,2013-06-14 19:15:00
3:35 PM,71.6,53.6,53,30.02,10.0,NW,5.8,-,N/A,,Scattered Clouds,310,2013-06-14 19:35:00
3:55 PM,71.6,53.6,53,30.02,10.0,WNW,11.5,17.3,N/A,,Scattered Clouds,290,2013-06-14 19:55:00
4:15 PM,71.6,53.6,53,30.02,10.0,NW,10.4,16.1,N/A,,Mostly Cloudy,310,2013-06-14 20:15:00
4:35 PM,71.6,53.6,53,30.02,10.0,NW,9.2,18.4,N/A,,Mostly Cloudy,310,2013-06-14 20:35:00
4:55 PM,69.8,51.8,53,30.02,10.0,NW,9.2,17.3,N/A,,Mostly Cloudy,320,2013-06-14 20:55:00
5:15 PM,69.8,53.6,56,30.02,10.0,WNW,9.2,-,N/A,,Mostly Cloudy,300,2013-06-14 21:15:00
5:35 PM,69.8,51.8,53,30.02,10.0,NW,8.1,-,N/A,,Partly Cloudy,320,2013-06-14 21:35:00
5:55 PM,69.8,53.6,56,30.02,10.0,NNW,4.6,-,N/A,,Clear,340,2013-06-14 21:55:00
6:15 PM,69.8,51.8,53,30.03,10.0,NW,4.6,-,N/A,,Clear,310,2013-06-14 22:15:00
6:35 PM,69.8,53.6,56,30.03,10.0,NW,9.2,-,N/A,,Partly Cloudy,320,2013-06-14 22:35:00
6:55 PM,68.0,53.6,60,30.03,10.0,NW,5.8,-,N/A,,Partly Cloudy,320,2013-06-14 22:55:00
7:15 PM,66.2,53.6,64,30.03,10.0,NW,4.6,-,N/A,,Clear,320,2013-06-14 23:15:00
7:35 PM,66.2,53.6,64,30.03,10.0,NW,4.6,-,N/A,,Clear,320,2013-06-14 23:35:00
7:55 PM,66.2,55.4,68,30.04,10.0,WNW,5.8,-,N/A,,Clear,300,2013-06-14 23:55:00
8:15 PM,64.4,53.6,68,30.04,10.0,WNW,5.8,-,N/A,,Clear,290,2013-06-15 00:15:00
8:35 PM,62.6,53.6,72,30.05,10.0,WNW,5.8,-,N/A,,Clear,290,2013-06-15 00:35:00
8:55 PM,62.6,53.6,72,30.05,10.0,WNW,5.8,-,N/A,,Clear,290,2013-06-15 00:55:00
9:15 PM,60.8,53.6,77,30.05,10.0,West,5.8,-,N/A,,Clear,280,2013-06-15 01:15:00
9:35 PM,60.8,53.6,77,30.06,10.0,WNW,8.1,-,N/A,,Clear,290,2013-06-15 01:35:00
9:55 PM,60.8,53.6,77,30.06,10.0,WNW,5.8,-,N/A,,Clear,290,2013-06-15 01:55:00
10:15 PM,59.0,53.6,82,30.08,10.0,WNW,4.6,-,N/A,,Clear,290,2013-06-15 02:15:00
10:35 PM,57.2,53.6,88,30.08,10.0,WNW,4.6,-,N/A,,Clear,290,2013-06-15 02:35:00
10:55 PM,57.2,51.8,82,30.09,10.0,WNW,8.1,-,N/A,,Clear,290,2013-06-15 02:55:00
11:15 PM,57.2,51.8,82,30.09,10.0,WNW,4.6,-,N/A,,Clear,300,2013-06-15 03:15:00
11:35 PM,55.4,50.0,82,30.08,10.0,West,4.6,-,N/A,,Clear,260,2013-06-15 03:35:00
11:55 PM,55.4,50.0,82,30.09,10.0,Calm,Calm,-,N/A,,Clear,0,2013-06-15 03:55:00